Tracking 32577 objects as of 14-Dec-2025
HD Live streaming from Space Station
objects crossing your sky now

METEOR 2-8 DEB

Track METEOR 2-8 DEB now!
10-day predictions


NORAD ID: 36338
Int'l Code: 1982-025Y
Perigee: 789.8 km
Apogee: 814.1 km
Inclination: 82.5 °
Period: 100.8 minutes
Semi major axis: 7172 km
RCS: 0.0162 m2 (small)
Launch date: March 25, 1982
Source: Commonwealth of Independent States (former USSR) (CIS)
Launch site: PLESETSK MISSILE AND SPACE COMPLEX (PKMTR)

Note: This is SATELLITE DEBRIS
Your satellite tracking list
Your tracking list is empty




NASA's NSSDC Master Catalog

Two Line Element Set (TLE):
1 36338U 82025Y   25346.71725196  .00003973  00000-0  15601-2 0  9995
2 36338  82.5211 334.2993 0016961 252.2367 107.6967 14.29079617 79106
Source of the keplerian elements: AFSPC